Location: Bemmer
(51.5498°N, 5.6249°E)
Time: 03:05:13
(UTC+00:00)

Cosmos 1378 - Pass Details

Date: 03 March 2021
Orbit: 489 x 501 km, 82.5° (Epoch: 13 April)

Event Time Altitude Azimuth Distance (km) Brightness Sun altitude
Rises 19:58:38 0° 345° (NNW) 2,606 7.3 -24.8°
Reaches altitude 10° 20:00:48 10° 340° (NNW) 1,715 6.4 -25.1°
Enters shadow 20:04:02 47° 289° (WNW) 670 4.1 -25.5°
